Theta_e
301 302 301 301 300 297 297 297 297 298 299 299 299 299 299 299 298 297 298 298 298 298 298 298 295 295 295 293 293 294 294 294 293 293 293 293 294 294 294 293 294 293 292 292 291 291 290 288 288 288 289 289 289 289 289 289 288 288 288 288 288 287 287 286 288 289 288 285 287 287 287 288 288 287 287 288 288 288 288 289 289 289 289 289 289
299 299 299 298 297 297 295 296 296 296 296 297 298 299 299 299 298 298 298 297 297 298 298 298 297 296 294 294 294 295 294 293 292 293 293 293 294 294 294 294 294 293 292 291 291 291 289 288 288 288 288 288 289 289 288 288 287 287 288 287 287 288 288 286 286 288 289 288 285 285 285 287 288 287 287 287 287 288 288 288 289 289 288 288 289
297 297 297 296 296 295 295 295 295 296 298 297 298 299 298 298 298 298 297 297 297 298 298 298 298 298 297 297 296 295 295 295 295 294 294 293 293 294 294 293 293 293 292 291 291 290 289 288 288 288 288 288 288 287 288 287 286 286 287 288 286 287 287 286 286 287 290 288 290 287 285 284 286 286 287 286 286 287 288 288 288 288 288 288 288
297 297 296 295 294 294 293 294 295 296 296 296 296 297 298 298 298 298 297 297 297 297 297 298 298 298 297 295 296 295 293 294 294 293 293 293 292 293 293 293 293 292 292 291 291 290 290 289 288 288 288 289 288 287 287 287 286 286 287 288 289 286 287 286 287 285 286 290 288 288 285 287 284 284 285 286 285 285 287 287 287 287 287 288 287
296 296 296 295 295 296 296 296 294 294 295 296 296 297 297 298 298 298 297 297 297 297 297 298 297 296 294 293 293 292 292 292 292 291 292 291 291 291 291 292 292 292 291 291 291 290 290 290 288 288 288 288 288 288 287 287 286 287 287 287 288 289 286 287 285 285 285 285 290 283 284 285 289 287 285 285 284 285 285 286 287 286 287 287 286
296 295 296 296 295 296 295 294 293 294 295 296 297 297 297 298 298 298 297 297 296 297 297 297 296 295 292 292 290 291 290 289 289 290 290 290 290 291 292 292 292 292 291 291 291 291 290 290 289 288 288 287 288 288 287 287 286 286 286 287 288 290 289 286 285 286 285 287 285 287 291 296 288 285 286 285 283 285 285 285 286 286 286 286 286
294 293 294 294 295 294 295 295 295 294 295 296 296 296 296 297 297 297 297 296 296 296 296 296 295 295 294 294 293 292 292 292 293 294 292 292 292 291 291 291 292 292 291 291 291 291 290 289 289 288 288 287 287 287 287 287 286 286 287 286 288 288 288 287 286 285 284 285 285 286 286 284 289 286 286 285 284 284 284 284 285 285 285 285 285
294 294 293 294 294 293 294 295 294 295 295 294 295 295 295 296 296 296 296 296 296 296 296 296 295 295 294 294 294 294 293 294 293 293 294 292 291 291 291 290 291 291 291 291 291 290 290 289 289 288 287 287 287 286 287 287 287 287 287 287 287 287 288 289 287 285 286 285 284 285 284 284 284 286 289 290 289 285 284 283 284 284 284 285 285
293 295 295 295 294 293 293 294 294 293 294 294 294 295 295 295 295 295 295 295 295 295 295 295 296 295 294 294 294 294 295 295 294 293 292 292 291 291 290 290 290 291 291 290 290 290 290 289 288 288 287 287 287 287 287 287 286 286 285 285 285 285 286 289 287 285 287 286 283 282 284 284 284 285 284 287 287 287 285 283 285 284 284 284 284
292 292 292 292 292 292 292 291 292 294 293 292 292 293 294 294 294 294 294 295 295 294 295 295 295 295 294 294 293 294 294 292 292 292 291 291 290 290 290 289 289 289 290 290 290 290 290 289 288 288 287 287 287 287 287 286 286 286 286 286 286 285 286 287 287 286 287 286 286 285 285 283 284 284 285 283 283 286 287 284 285 285 284 285 283
292 292 291 292 292 291 291 292 292 292 291 291 292 293 293 293 293 293 294 294 294 294 294 294 295 295 294 294 294 293 294 292 290 290 290 289 290 290 289 289 289 289 289 289 289 289 289 289 288 288 288 287 287 287 286 286 286 286 286 286 286 286 285 285 287 287 286 286 286 285 286 286 286 284 284 284 286 283 281 282 282 283 284 284 284
291 291 293 292 294 294 293 294 293 293 292 292 291 291 291 292 292 292 292 293 293 293 294 294 294 294 294 294 293 294 293 292 291 290 290 289 290 289 289 289 288 289 289 288 288 289 289 288 288 288 287 287 286 287 286 286 286 286 285 285 285 285 286 285 286 285 285 285 285 286 287 288 288 288 286 286 285 286 286 284 284 282 281 282 283
292 292 292 293 292 292 292 293 294 295 294 292 291 290 290 290 291 291 292 292 292 293 293 293 293 294 294 294 293 293 293 293 292 291 291 290 290 290 288 288 288 287 288 288 288 288 288 288 287 287 287 287 287 287 287 286 286 285 285 285 285 285 284 285 285 285 284 284 284 285 286 286 286 286 286 285 286 286 286 282 282 282 283 283 281
292 292 292 292 292 292 292 292 292 293 293 293 291 290 290 290 290 290 291 291 291 292 292 293 293 293 294 294 294 293 293 293 292 292 291 291 291 290 289 289 288 288 288 288 289 288 288 288 288 287 287 287 287 286 286 286 285 284 285 284 284 285 285 285 285 286 285 286 286 284 284 284 285 284 285 285 284 283 283 283 281 279 279 280 280
291 292 293 293 293 291 291 291 293 294 293 293 291 290 289 289 289 289 290 290 290 291 291 292 292 293 293 294 294 293 293 293 293 293 292 290 291 290 290 290 289 289 289 289 289 288 288 288 288 287 287 287 286 286 285 285 285 285 284 285 284 285 284 284 284 285 283 284 284 284 284 284 283 283 284 284 285 286 285 283 282 279 278 278 278
292 292 292 292 291 291 292 292 293 293 293 293 292 291 290 290 289 289 289 290 290 290 290 291 292 292 292 292 293 293 292 293 293 292 292 291 290 290 290 290 290 290 290 290 289 289 288 288 288 287 287 287 286 286 285 285 284 284 284 284 284 284 283 283 284 284 283 284 284 284 283 283 282 282 283 284 284 286 285 284 285 284 282 280 279
291 291 291 291 290 290 291 292 292 292 292 292 292 291 290 290 290 289 289 289 289 290 290 290 291 291 291 292 292 292 292 292 292 292 291 291 290 290 290 290 290 290 289 289 289 289 288 288 287 287 287 286 286 285 285 285 284 284 283 283 283 283 283 283 283 283 283 283 283 283 283 283 282 282 282 283 283 283 284 284 285 285 285 284 282
290 289 289 289 289 289 289 290 290 290 291 291 291 291 291 290 289 289 289 290 290 289 289 289 290 290 290 291 291 292 292 292 292 292 291 290 289 289 289 289 289 289 289 288 288 288 287 287 287 287 286 286 285 285 285 284 283 283 284 283 283 283 282 283 283 282 283 282 282 282 282 282 282 281 282 282 282 282 282 282 282 283 284 284 282
287 287 287 287 287 287 287 288 289 289 290 290 291 291 291 291 291 290 289 289 289 289 289 289 289 290 290 290 291 291 291 291 292 291 290 290 289 289 288 289 289 288 288 288 287 287 287 287 287 286 286 285 285 284 284 284 283 283 283 283 283 282 282 282 282 282 282 281 281 281 281 281 281 281 281 281 281 281 281 281 281 281 281 283 282
285 285 286 286 286 286 286 286 287 288 288 290 290 290 290 290 290 290 290 290 290 290 289 289 289 289 290 290 290 290 291 291 291 291 289 289 289 289 288 288 288 288 288 287 287 287 287 286 286 286 285 285 284 284 284 283 283 283 282 282 282 281 281 281 281 281 281 281 281 280 280 280 280 280 280 280 280 281 281 280 280 280 280 280 281
284 284 285 285 285 286 286 286 287 287 288 289 289 288 289 289 289 290 289 290 290 290 289 289 289 289 289 289 289 289 289 290 290 289 289 289 288 288 288 288 288 287 287 287 286 286 286 286 286 285 285 284 284 283 283 283 282 282 282 282 281 281 280 281 281 280 280 280 280 280 280 280 280 279 280 279 279 279 279 280 279 279 279 279 280
284 284 284 284 284 285 285 286 286 286 286 286 288 288 288 288 289 289 289 289 289 290 289 289 289 289 289 289 289 288 288 288 288 289 288 289 288 288 288 287 287 287 287 287 286 286 286 286 286 285 285 284 284 283 283 282 282 282 281 282 281 280 280 281 280 279 279 280 280 279 279 279 279 279 279 278 279 278 278 278 278 278 278 278 279
283 283 284 284 284 284 284 284 285 285 285 286 286 287 287 287 287 288 288 288 289 289 290 289 289 288 288 288 288 288 288 288 288 288 288 288 288 288 287 287 287 286 286 286 286 286 286 286 285 285 285 284 284 283 283 282 282 282 281 281 281 280 280 280 280 279 279 279 279 279 279 279 278 278 278 278 278 278 278 278 277 278 278 278 278
283 283 283 283 283 283 284 284 284 284 285 285 286 286 286 286 286 287 287 288 288 289 289 289 289 288 288 287 287 288 287 287 287 288 288 288 288 288 287 287 287 287 286 286 286 286 285 285 285 285 284 284 284 283 283 282 282 282 282 281 281 280 280 281 280 280 280 279 279 279 279 278 278 277 277 277 278 278 277 277 277 277 277 277 277
282 282 282 282 282 282 282 283 283 284 284 285 285 285 285 285 285 286 286 287 288 288 288 288 289 288 288 287 287 287 287 287 287 288 288 288 288 288 288 287 287 286 286 286 285 286 285 285 284 284 284 284 284 283 283 282 282 282 282 282 281 281 280 281 281 280 281 279 279 279 279 278 278 277 277 276 277 276 277 277 276 276 276 276 276
282 282 282 281 282 282 282 282 283 283 283 284 285 285 285 285 284 285 285 286 287 287 287 288 288 288 288 288 287 287 287 287 287 287 288 288 288 288 288 287 287 286 286 285 285 285 285 285 285 285 285 284 284 284 283 282 282 282 282 282 282 281 281 281 281 281 280 280 279 279 279 278 278 277 277 276 276 276 276 276 276 276 276 275 275
281 281 282 282 282 282 282 282 283 283 283 283 284 284 284 284 284 284 285 285 286 286 286 286 287 287 287 287 287 287 287 287 287 287 287 287 287 287 287 287 287 286 286 285 285 285 285 285 285 285 284 284 284 284 283 283 282 282 282 281 281 281 280 280 281 281 280 280 280 280 279 278 278 278 277 276 276 276 276 275 275 275 275 275 274
281 281 281 281 281 282 282 282 283 283 283 283 284 284 284 284 283 284 284 285 285 285 285 285 285 286 286 286 286 287 287 287 287 287 287 287 287 287 287 287 287 286 286 286 285 285 285 285 285 285 285 285 284 284 283 283 283 282 282 281 281 281 280 280 280 280 280 280 280 280 280 279 278 278 278 277 277 276 276 275 276 275 275 274 274
281 281 281 281 281 281 282 282 283 283 283 284 284 284 284 284 284 283 284 284 285 284 284 284 284 284 285 285 286 286 287 286 286 286 286 286 287 286 286 287 286 286 286 286 286 285 284 284 285 284 284 284 284 284 283 283 282 282 282 281 281 281 280 280 280 280 280 280 279 279 279 279 278 279 280 279 278 278 276 275 275 275 274 274 274
281 282 282 282 282 282 282 282 282 283 283 284 284 284 284 284 284 284 283 284 284 284 284 284 284 284 284 285 285 285 285 285 286 286 286 286 286 286 286 286 286 286 286 286 285 285 285 284 284 284 284 284 284 284 284 285 285 282 281 281 281 281 281 280 280 280 279 279 279 279 279 280 280 280 280 280 280 280 279 277 276 275 274 274 273
282 283 283 283 282 282 281 281 281 282 283 283 284 284 284 284 284 284 284 284 284 283 283 283 283 283 284 284 284 284 284 284 285 285 285 285 286 286 286 285 285 285 285 285 284 284 284 284 284 284 283 283 284 284 285 286 286 286 283 282 281 281 281 280 280 279 279 278 278 278 278 279 280 280 279 281 281 281 280 279 279 278 277 274 272
282 282 282 282 281 281 281 281 281 282 282 283 284 284 284 284 284 284 284 284 284 284 283 283 283 283 283 283 283 283 283 283 284 284 284 284 284 284 285 285 285 285 284 284 284 284 284 284 284 283 283 283 283 285 286 287 287 287 285 282 282 281 280 280 280 279 279 278 278 277 277 277 278 279 279 279 280 281 281 280 280 279 279 278 278
282 281 281 281 281 281 281 281 282 282 283 283 284 283 283 284 284 284 284 284 283 283 283 283 283 283 283 283 283 282 282 282 283 283 283 283 283 283 284 284 284 285 284 284 284 284 284 284 283 283 283 284 283 286 287 287 287 287 287 284 281 281 280 280 280 279 279 278 278 277 276 276 277 279 279 279 279 279 281 281 280 279 279 279 279
281 281 281 282 282 282 282 282 282 283 283 283 284 283 283 284 284 284 283 283 283 283 283 283 283 283 282 282 282 281 281 281 282 282 282 282 282 282 283 283 283 284 284 284 284 283 283 283 283 283 283 283 283 285 287 287 287 287 288 286 282 281 280 280 279 279 279 278 277 276 276 275 276 278 278 278 278 279 279 278 278 278 277 278 280
281 281 281 282 282 282 281 281 282 282 283 283 283 283 283 283 283 283 283 282 283 282 282 282 282 282 282 282 282 282 281 281 281 281 281 281 281 281 282 283 283 283 283 283 283 283 283 283 283 283 283 283 283 285 286 287 287 287 288 287 283 281 280 280 279 279 278 278 277 276 276 275 276 276 277 277 278 278 278 277 277 277 277 277 278
282 282 282 282 282 282 281 281 282 282 282 283 283 283 282 282 283 282 282 281 282 282 282 282 282 282 282 282 282 282 282 281 281 281 280 281 281 281 281 281 282 282 282 282 282 282 282 282 283 282 282 282 283 285 286 286 287 287 288 286 283 281 280 279 279 278 278 278 277 277 276 275 275 276 278 280 279 278 277 276 275 276 276 276 277
283 283 283 284 283 282 282 282 281 281 281 281 282 282 282 282 281 281 281 281 281 281 281 281 281 282 282 282 282 282 281 281 282 281 281 281 281 280 281 281 280 281 281 281 281 282 282 282 282 282 281 281 282 284 286 286 287 287 287 285 284 281 280 279 278 278 277 277 277 276 276 275 275 275 279 281 281 280 276 275 275 275 275 276 276
283 284 283 283 283 282 281 281 280 280 281 281 281 280 280 280 280 280 280 279 280 279 280 281 281 281 281 281 282 282 281 281 281 281 281 281 281 281 281 281 280 280 280 280 280 279 279 279 280 280 281 281 281 282 285 286 286 287 286 284 283 281 279 278 278 277 277 277 276 278 277 275 275 275 280 282 282 279 275 275 275 274 274 274 276
282 282 282 282 282 281 281 280 280 279 280 280 279 278 278 278 279 279 279 278 278 279 279 279 280 281 281 281 281 282 282 281 281 281 281 281 281 281 281 280 280 279 279 280 279 278 278 278 278 279 281 280 280 281 283 285 286 287 286 284 283 281 279 278 277 276 276 276 275 277 278 277 276 276 281 282 282 279 275 275 275 275 274 273 275
281 282 281 280 280 279 278 279 279 279 280 279 279 278 277 278 278 278 277 277 278 278 279 279 280 279 280 280 281 281 281 281 281 281 281 281 281 280 280 280 280 279 278 278 278 278 277 277 277 277 278 279 279 279 281 284 285 286 287 285 283 280 278 277 277 276 275 275 275 275 277 279 279 279 281 283 283 281 276 276 275 274 273 273 275
280 280 280 278 278 278 278 278 278 278 278 278 278 278 278 278 277 277 276 277 277 278 278 278 278 278 278 278 280 280 280 280 280 281 281 280 280 280 280 279 278 278 278 277 277 277 277 277 277 277 277 277 278 278 279 282 284 285 286 286 282 280 279 278 276 275 275 274 274 274 276 279 280 280 281 282 283 282 279 275 275 274 274 275 276
277 277 277 276 276 276 276 276 277 277 277 277 276 276 276 276 276 275 276 277 277 277 277 277 276 276 276 277 277 278 279 279 280 280 279 279 280 280 279 278 278 277 277 277 277 276 276 276 276 276 276 276 278 279 278 281 283 285 286 287 283 280 279 278 276 275 275 274 274 274 275 278 280 280 280 282 284 283 281 275 275 277 278 278 275
276 275 275 275 274 274 274 275 275 275 275 276 275 274 275 275 274 275 276 276 276 276 276 275 275 275 275 275 276 276 277 278 278 279 278 278 278 278 278 277 276 276 276 276 276 276 276 275 275 275 275 275 276 277 280 279 281 284 285 286 285 282 282 278 276 275 275 274 275 276 276 279 280 280 281 282 284 284 281 276 278 279 279 279 277
274 274 274 272 272 273 273 273 274 274 274 274 273 273 273 273 273 275 275 275 274 274 274 274 274 273 274 274 274 275 275 276 276 276 276 275 276 277 278 277 277 276 276 275 276 276 275 275 275 275 275 275 275 276 278 280 280 282 284 286 286 284 283 279 277 276 276 276 275 276 276 280 281 281 282 283 284 283 279 279 279 279 279 279 275
273 273 273 272 272 271 272 272 272 272 272 272 272 271 271 271 273 274 273 273 273 273 272 272 272 272 272 272 273 273 273 273 273 273 273 274 274 276 276 277 276 275 275 275 275 275 275 274 275 274 275 275 275 275 275 278 280 281 283 285 286 285 283 282 277 276 276 276 277 278 279 280 281 282 282 283 283 283 281 280 280 280 279 276 271
272 271 271 271 270 270 269 269 270 271 271 271 271 271 269 271 272 272 272 271 271 270 270 270 270 270 270 271 270 270 270 270 271 271 272 273 273 274 275 276 276 275 275 275 275 275 275 274 274 274 274 275 274 274 274 275 277 279 281 283 284 285 284 282 280 277 278 278 279 279 280 280 281 281 280 280 280 281 282 280 280 280 276 271 271
270 270 270 269 268 268 268 268 268 269 270 270 270 270 270 271 270 271 270 269 268 268 268 268 268 268 268 268 268 268 268 269 269 270 270 272 273 274 275 275 276 275 275 275 275 275 275 275 274 275 275 275 274 273 273 274 275 276 278 280 282 283 284 282 279 277 278 277 278 278 278 280 280 281 281 280 280 281 280 280 278 275 271 271 269
269 269 268 267 267 266 266 267 267 268 269 269 268 268 269 269 269 269 268 266 266 266 266 265 265 266 266 266 266 267 267 267 267 268 269 270 271 273 274 274 275 275 275 275 275 275 275 275 275 275 275 274 273 273 273 273 274 275 276 278 280 281 281 280 277 276 276 276 277 278 279 278 279 279 279 277 277 275 273 270 268 268 268 268 269
267 266 266 266 266 265 265 265 266 267 267 266 266 266 267 266 266 266 265 264 263 264 264 263 263 264 263 265 265 265 265 266 266 267 268 269 270 271 273 274 276 277 276 276 275 276 276 276 276 276 275 274 273 273 273 276 275 277 276 277 278 280 280 279 277 278 275 275 275 275 275 275 276 275 272 271 270 268 268 267 266 266 267 267 268
266 266 265 264 264 264 263 263 263 264 263 263 263 263 263 264 263 263 262 261 261 261 261 261 261 262 262 263 263 264 264 265 265 266 267 268 271 274 274 273 273 277 279 281 280 277 277 278 277 277 277 276 275 276 278 278 278 279 280 280 280 282 282 279 279 280 277 274 274 273 274 274 273 271 271 270 269 268 265 265 265 267 265 265 265
264 263 262 262 261 261 260 260 260 261 260 260 260 260 260 260 260 260 260 259 259 259 259 259 260 260 261 262 262 262 263 263 264 264 265 265 266 268 273 275 275 276 277 280 281 282 282 282 280 277 278 281 281 280 279 279 279 280 280 281 281 282 283 281 280 277 275 273 273 272 272 273 272 271 271 270 270 269 267 265 264 264 265 265 265
Wind_Speed
9 4 4 3 4 7 7 7 8 8 9 10 12 13 13 14 12 16 12 11 10 10 10 10 11 9 7 10 12 11 11 10 9 9 9 9 10 11 11 10 11 11 10 11 10 8 8 8 9 8 8 8 8 9 8 7 6 5 5 3 6 6 3 2 3 4 8 6 5 5 4 3 3 3 4 3 3 2 1 2 2 3 3 4 3
5 6 7 5 6 5 6 6 6 8 11 11 14 15 15 14 15 15 11 11 12 12 11 11 11 12 13 15 13 9 10 11 13 11 11 10 10 10 9 9 10 11 10 10 9 10 9 9 9 10 10 9 7 6 7 6 7 6 6 5 1 4 4 5 5 5 2 4 6 4 3 2 1 0 0 1 1 1 1 2 2 3 4 3 3
5 6 5 5 5 7 6 7 8 11 8 11 13 11 11 13 14 12 10 11 12 13 10 12 10 12 9 6 8 6 7 6 4 5 5 7 8 8 8 9 10 9 10 10 9 10 10 10 9 9 10 9 9 9 8 9 8 9 10 8 6 1 2 1 5 4 3 2 3 5 3 3 1 3 2 2 1 1 1 2 1 2 3 3 3
12 5 6 5 7 8 6 7 9 6 7 6 7 11 10 11 12 11 12 13 12 14 14 12 9 7 7 2 5 6 5 6 8 6 8 7 9 9 9 9 10 10 9 11 9 9 10 11 9 10 10 10 9 10 10 9 9 8 8 7 7 6 4 5 3 4 2 7 4 1 2 1 3 7 7 2 1 1 2 2 1 2 2 3 3
10 9 6 8 9 8 7 7 5 6 7 8 8 9 9 13 13 13 12 13 13 13 14 11 8 8 6 4 5 5 3 7 8 8 9 9 7 10 11 9 10 10 11 12 11 12 11 10 10 10 10 10 9 9 10 11 11 9 9 8 11 9 8 3 4 3 5 4 3 6 3 1 3 2 4 2 1 1 3 2 2 1 2 1 2
1 4 7 8 8 10 9 7 6 6 8 9 7 8 9 9 9 10 9 9 11 13 13 11 10 9 9 9 9 9 9 10 14 17 12 13 15 7 8 12 11 11 11 11 11 10 11 10 10 10 10 10 9 9 8 7 9 10 12 10 11 7 9 7 5 2 1 1 3 2 1 2 5 2 4 4 2 1 1 3 2 2 1 2 2
4 6 7 6 6 8 9 7 6 7 8 6 6 8 8 8 8 10 10 9 9 10 13 11 10 9 12 13 11 10 11 10 7 3 7 7 4 10 9 9 12 12 11 11 11 10 10 10 11 10 10 10 9 9 9 11 10 11 8 9 9 6 7 9 10 7 3 1 0 0 1 2 2 7 4 3 3 2 3 4 5 3 2 2 3
3 4 5 4 6 6 7 8 7 8 8 5 5 6 8 9 8 9 8 9 8 9 12 13 11 12 13 14 13 11 13 12 7 6 4 6 7 7 8 9 9 10 10 11 11 11 11 10 10 10 11 10 10 11 11 10 8 7 9 9 6 6 9 10 10 8 11 6 3 3 3 3 3 4 3 5 3 4 3 1 3 3 3 3 3
2 5 3 3 9 7 4 7 8 9 7 6 5 5 6 5 6 6 8 8 8 11 12 13 12 13 11 10 12 12 10 6 4 5 6 6 8 6 7 7 7 8 8 10 10 10 10 10 10 10 10 11 10 10 9 10 12 12 11 10 10 8 8 7 9 10 8 8 8 2 3 3 2 3 2 3 3 4 2 4 4 2 2 4 3
6 7 4 6 6 6 6 6 8 7 7 6 5 4 4 4 6 7 8 7 8 10 10 13 14 11 12 13 16 12 8 6 5 8 8 7 8 8 7 7 8 7 8 9 9 10 9 10 10 11 11 10 10 11 10 11 11 11 12 12 10 11 7 7 10 9 8 7 9 9 6 4 2 2 1 3 2 1 3 5 4 5 5 2 2
8 4 4 5 4 5 7 7 8 9 8 7 6 4 2 4 5 7 7 5 7 10 11 13 12 12 12 14 14 13 11 9 8 9 9 9 9 8 8 7 6 8 7 7 9 10 10 10 10 10 9 11 10 11 12 12 11 11 10 11 12 13 9 9 8 8 8 8 9 9 12 12 12 9 9 5 5 4 2 2 2 4 3 1 1
5 6 7 7 10 9 7 9 10 10 10 10 8 5 2 3 4 6 6 7 7 8 10 11 11 13 13 12 13 13 11 9 11 10 10 11 10 10 8 8 9 8 8 8 10 10 9 9 10 9 10 9 10 9 9 10 8 8 9 9 9 10 9 8 8 10 10 7 9 8 9 10 8 8 9 8 9 7 7 4 5 4 2 5 1
5 6 6 8 6 7 8 9 11 12 12 12 10 7 5 3 3 5 7 6 7 8 10 11 11 13 13 12 12 11 12 12 12 11 9 9 8 8 9 10 8 9 11 11 12 14 11 10 11 12 11 10 9 9 10 10 9 9 9 10 10 11 10 10 10 11 12 11 11 8 6 6 8 3 6 8 5 4 6 4 2 1 2 2 2
7 7 8 7 6 8 9 8 8 8 10 9 8 7 6 5 3 4 7 4 6 7 9 10 12 12 11 12 11 9 12 11 10 10 9 7 7 9 9 9 10 12 12 14 11 11 11 13 13 11 12 11 14 13 11 11 10 10 10 11 12 9 8 12 10 11 9 10 6 8 7 7 5 4 6 7 8 8 6 7 6 1 0 2 1
8 10 11 11 11 12 11 9 7 9 12 13 12 10 7 7 5 6 6 5 6 8 7 10 10 10 10 10 10 9 10 10 9 8 8 8 7 8 8 8 9 9 9 8 10 12 13 10 13 12 12 13 12 11 12 10 10 9 9 10 9 8 10 9 9 11 10 11 10 9 8 6 6 6 6 7 7 9 9 8 8 6 2 2 3
11 13 14 14 10 7 6 7 11 14 16 15 15 12 10 9 7 7 7 6 5 7 8 8 9 8 9 11 12 10 9 8 7 8 8 8 9 9 9 10 8 7 8 9 11 10 11 13 13 14 14 11 12 13 11 11 11 11 9 10 11 7 10 11 9 9 10 12 10 8 6 7 6 6 6 7 7 6 5 7 8 7 6 3 3
13 12 10 11 11 14 14 15 14 15 15 16 15 12 10 10 10 9 8 6 5 6 7 7 7 7 9 10 9 9 10 11 11 11 11 9 10 9 9 10 9 8 8 9 9 10 10 13 12 11 13 13 11 11 11 10 11 11 11 11 12 10 9 11 9 9 9 9 8 10 8 7 7 6 5 5 6 4 4 5 6 10 7 5 3
13 16 15 14 13 15 14 13 14 14 12 12 13 12 11 10 9 9 10 9 7 5 6 7 8 8 8 9 10 10 10 11 10 10 8 8 8 9 9 9 10 10 9 9 11 12 12 12 11 10 10 10 11 9 10 10 10 10 10 10 9 10 11 8 9 9 9 7 7 7 7 6 6 7 6 6 6 6 6 5 5 2 5 8 5
16 14 13 12 11 11 11 11 10 10 10 9 10 11 12 12 12 11 12 11 10 7 6 6 7 6 6 8 8 9 9 9 8 8 7 9 10 10 11 11 9 10 10 10 10 11 11 11 11 10 10 11 10 9 9 9 10 10 10 10 10 10 10 10 9 9 8 8 9 10 8 6 7 7 6 6 5 6 5 5 4 3 3 4 7
11 10 10 8 8 8 7 7 8 10 10 6 3 5 11 11 13 14 15 15 13 12 9 8 7 6 7 6 7 8 8 9 9 8 8 10 10 10 10 10 12 9 11 11 12 13 12 11 10 11 11 10 10 9 9 9 9 10 9 9 10 11 11 11 10 8 7 9 10 10 9 7 8 7 7 7 7 5 5 5 5 5 3 3 5
10 8 6 7 8 9 9 6 3 2 3 4 13 18 18 19 21 19 18 17 17 15 12 10 8 7 7 8 9 7 9 8 9 9 10 10 9 9 10 10 8 11 10 11 11 11 11 11 11 13 11 11 10 10 9 8 10 10 10 10 9 11 12 10 10 10 9 10 10 10 10 8 8 9 7 7 6 7 6 5 5 5 5 5 6
10 10 12 13 14 14 12 11 12 16 19 20 18 18 19 18 16 16 16 15 14 15 14 13 10 8 8 8 9 7 7 7 9 9 11 10 9 10 10 9 12 10 11 13 11 12 11 11 11 11 11 11 11 11 10 10 11 11 12 8 10 12 12 11 10 11 12 9 10 10 10 10 10 9 9 9 8 8 8 8 7 8 7 7 6
11 11 11 12 12 13 12 15 16 17 17 16 16 16 15 14 14 13 15 17 16 13 13 12 11 10 10 9 8 8 7 8 9 9 10 11 10 10 9 11 11 9 10 11 12 12 11 12 11 10 11 11 12 12 11 11 11 12 12 11 10 12 13 13 13 13 12 10 11 11 11 10 8 10 9 8 9 9 8 9 9 7 8 7 7
9 9 9 9 8 10 13 16 16 16 16 16 13 11 11 12 12 12 14 14 15 15 15 14 13 12 10 9 9 8 8 8 9 9 11 11 10 10 9 10 10 9 10 10 11 13 12 12 12 13 12 12 13 13 13 12 13 12 12 12 11 11 12 12 13 13 14 14 14 12 12 12 12 11 11 10 10 10 10 9 9 8 7 8 8
8 10 10 10 12 14 13 11 11 11 11 11 12 12 12 12 12 12 11 11 11 11 12 14 14 14 13 11 10 9 8 9 10 9 10 10 10 10 9 10 10 10 11 10 10 11 13 12 12 13 13 14 14 13 13 13 12 12 13 12 11 11 12 13 13 13 13 15 14 15 13 13 13 12 10 11 11 13 10 10 10 9 8 8 6
12 11 11 10 6 6 8 9 8 8 8 9 10 11 11 12 13 11 12 12 12 12 12 12 13 14 15 15 12 10 9 9 10 10 11 10 10 9 10 9 10 11 11 11 12 11 12 13 12 13 14 13 11 12 13 12 13 12 12 12 11 11 12 12 11 12 13 13 14 14 13 14 14 15 14 12 12 15 12 11 11 10 9 8 9
9 9 9 11 13 13 10 8 6 5 5 5 6 8 9 11 13 13 11 11 11 12 13 12 13 12 12 15 15 14 12 10 10 9 9 8 9 9 10 10 10 11 11 11 11 12 12 13 14 12 12 12 12 12 12 13 12 12 13 13 13 12 12 13 14 12 11 12 13 13 14 15 16 15 14 15 15 14 12 14 13 12 11 11 11
3 5 7 8 8 9 10 11 11 11 9 7 5 6 6 7 9 10 12 11 10 11 12 12 12 12 12 12 12 12 12 12 10 10 9 9 9 9 9 10 9 11 11 12 12 13 13 12 13 13 14 12 13 12 12 12 12 12 15 16 14 14 13 15 15 16 15 14 13 13 14 16 16 15 15 15 16 15 12 13 11 10 11 11 10
8 6 3 3 5 5 7 8 8 8 9 10 10 10 9 9 8 8 8 10 10 11 11 11 12 13 13 12 12 11 10 11 11 10 10 10 9 8 9 8 9 9 9 11 12 12 12 13 13 13 13 13 14 15 13 13 13 15 16 17 14 13 12 12 11 11 12 11 10 10 11 12 17 18 16 15 17 15 13 12 11 12 12 12 9
7 8 8 7 7 6 6 6 7 8 9 9 8 9 9 10 11 11 11 10 9 10 10 11 12 12 12 13 13 12 13 12 13 13 13 11 10 9 8 8 8 9 9 9 10 11 12 14 13 13 13 12 13 12 15 21 17 16 16 15 15 16 17 13 13 12 11 10 10 9 11 12 17 19 21 22 23 23 20 14 15 15 13 12 11
5 7 7 8 8 9 8 7 7 7 8 8 8 8 7 7 8 9 10 10 8 9 8 8 10 10 11 11 12 13 13 14 13 12 12 13 13 10 9 8 8 8 9 9 10 11 12 11 13 13 14 13 13 12 18 19 24 22 16 15 16 15 15 13 12 12 12 12 10 10 8 13 16 17 19 25 26 26 24 21 21 22 20 17 16
6 7 7 7 7 8 9 10 10 9 8 7 7 8 8 9 9 9 9 8 9 9 9 8 8 8 9 10 10 12 13 13 13 13 13 12 11 11 10 8 8 7 8 8 9 11 11 11 10 12 13 13 13 14 17 21 23 24 20 15 13 12 13 14 11 11 10 10 12 10 8 7 10 13 13 17 21 23 23 22 23 23 22 21 18
7 7 7 7 7 7 8 9 9 10 9 8 6 6 7 7 9 9 8 8 8 8 9 9 9 9 10 9 10 11 11 11 11 12 11 11 11 11 11 11 10 8 6 6 9 9 10 10 11 12 13 13 13 12 18 21 23 24 24 19 12 13 12 13 10 11 10 10 9 10 9 9 8 15 13 11 13 16 20 22 21 22 22 22 20
7 7 7 7 7 7 7 7 8 9 9 8 6 6 6 5 7 7 8 8 8 9 8 9 8 9 9 9 9 9 10 11 11 11 11 11 11 11 10 10 9 9 7 7 7 9 9 10 11 12 12 13 13 13 18 20 22 24 24 21 14 14 14 14 11 11 10 11 11 11 11 10 9 12 10 12 12 13 14 15 14 14 13 17 19
8 7 7 7 8 8 7 8 8 8 9 9 9 7 6 6 6 7 7 7 8 8 8 8 8 8 8 8 9 8 9 10 10 10 10 11 10 11 11 10 8 9 9 8 8 8 8 8 9 9 11 11 11 13 17 21 22 23 24 21 14 14 12 13 10 10 10 10 11 11 12 11 11 12 11 14 13 13 13 13 14 13 12 12 13
9 8 8 8 7 8 8 9 7 6 8 7 9 8 7 9 7 8 8 7 8 8 8 7 7 7 8 9 8 9 9 9 9 9 9 10 10 10 11 10 9 9 7 7 8 7 8 9 9 9 10 12 10 12 17 20 22 23 24 15 13 14 14 13 10 10 11 10 11 11 11 10 12 12 17 25 20 14 15 15 15 13 10 10 11
9 9 10 9 8 7 9 8 8 8 8 9 8 7 8 9 10 9 9 9 7 8 8 7 8 8 8 8 8 9 9 9 9 10 10 10 10 11 10 7 8 9 10 9 9 8 7 7 8 9 10 11 10 12 17 20 22 24 19 13 13 12 13 13 10 9 9 10 9 12 11 11 12 12 21 26 25 20 14 15 14 13 11 10 9
10 9 9 9 8 7 7 8 9 10 9 8 7 7 7 8 10 10 10 11 9 10 9 8 8 8 9 10 9 9 9 9 9 9 10 10 9 8 8 7 7 9 9 10 9 9 8 7 8 9 10 11 11 10 16 19 21 23 19 14 12 12 13 13 12 9 8 8 9 17 15 11 11 14 24 27 27 20 14 15 14 14 13 11 9
9 9 10 10 8 7 8 8 8 10 11 8 8 7 7 8 9 10 11 11 12 10 9 9 9 9 10 10 9 10 10 10 10 10 8 9 9 9 9 7 7 7 9 8 7 8 9 7 8 10 9 11 10 9 14 18 21 23 19 13 12 11 12 13 11 11 8 6 9 15 22 18 13 19 28 27 28 22 15 15 16 14 12 12 10
9 8 7 5 5 6 7 9 10 11 10 9 7 7 7 9 10 8 9 12 12 11 9 9 9 9 9 10 10 11 11 10 11 12 10 10 9 8 9 8 8 6 7 7 8 8 10 9 7 8 9 10 10 8 10 18 20 23 24 14 11 12 14 13 11 9 10 9 9 9 17 24 22 24 27 27 26 25 15 14 13 13 14 15 9
7 7 4 4 5 6 9 10 10 10 10 9 8 8 11 11 11 10 13 13 10 10 10 10 10 9 10 11 10 10 12 12 11 11 10 9 9 9 10 9 9 8 7 7 8 8 8 9 8 8 8 9 9 9 9 17 20 23 25 23 11 13 12 11 11 11 9 8 8 9 8 19 23 24 26 26 26 25 18 12 14 13 13 11 12
4 6 6 6 6 8 9 10 10 11 11 9 8 10 12 12 11 13 15 11 9 10 9 9 10 11 11 11 11 11 11 11 11 10 10 11 10 10 10 10 8 8 10 10 9 7 8 8 7 7 8 9 8 11 9 15 21 23 24 30 15 13 13 12 12 12 10 7 9 9 9 17 25 25 26 26 27 26 24 12 11 13 13 17 13
9 11 9 6 8 10 12 12 11 9 8 9 8 11 13 13 15 17 13 9 9 9 10 10 11 12 12 12 12 12 13 11 11 10 11 13 12 11 11 9 10 10 10 12 11 9 7 8 7 7 7 7 8 8 15 12 19 24 25 28 23 14 18 13 13 13 13 10 8 9 12 23 26 26 27 27 27 28 22 12 20 19 18 19 15
8 8 9 6 8 10 12 13 13 10 9 9 8 12 13 15 18 16 10 9 9 10 11 12 12 12 13 13 12 12 12 11 11 12 13 14 14 12 11 10 9 9 9 10 10 9 8 8 9 8 6 6 6 6 11 17 15 22 24 26 26 21 21 14 12 12 10 6 7 8 13 25 26 26 27 27 26 26 16 22 23 23 21 20 10
11 12 10 6 9 11 13 14 14 13 11 10 9 11 14 17 17 11 10 10 11 12 12 13 14 14 14 13 12 12 12 11 12 12 13 14 15 13 12 10 9 9 10 10 10 8 9 9 8 9 8 7 6 7 7 12 19 20 23 24 26 27 24 23 14 11 10 9 13 20 23 25 25 25 27 26 24 26 23 23 24 24 21 9 10
10 10 10 8 10 10 12 15 17 16 14 10 10 9 14 16 13 11 10 10 11 13 14 15 14 14 14 13 15 15 14 13 13 11 12 13 14 14 13 12 9 9 10 10 11 9 9 9 9 9 9 8 7 5 7 8 11 15 17 23 26 26 27 25 19 12 14 19 22 24 25 25 25 22 18 14 13 14 22 25 26 24 11 10 10
12 12 10 11 11 13 15 16 18 17 14 11 11 11 12 12 13 12 11 11 11 13 14 14 15 14 14 13 15 14 14 14 14 13 12 13 13 12 12 12 11 11 11 10 11 10 10 10 10 10 9 8 7 6 6 8 9 9 11 13 16 16 23 24 15 10 13 13 17 19 15 20 15 22 21 15 13 15 18 17 15 11 9 10 10
12 11 10 11 13 13 15 16 18 18 15 14 14 13 12 12 12 11 10 10 12 14 15 16 17 15 14 14 14 15 17 15 15 13 14 14 13 12 12 13 13 11 11 11 11 11 11 11 11 10 9 8 7 7 8 9 10 11 11 10 11 11 9 12 9 10 10 11 12 16 19 16 15 15 15 11 11 9 8 8 10 9 9 9 9
15 14 13 13 13 16 17 17 18 16 15 16 15 14 12 12 12 12 13 16 17 19 18 19 19 17 17 16 15 14 14 14 14 15 14 14 14 14 13 13 13 11 12 12 12 12 12 11 10 10 10 10 10 10 13 14 13 15 13 11 11 11 9 11 13 17 12 10 10 11 11 12 11 12 10 10 11 10 9 10 11 9 10 9 9
13 12 14 15 14 14 16 18 20 17 17 17 17 15 12 11 11 12 14 18 20 20 20 21 18 17 17 16 14 13 13 12 13 12 13 13 17 24 19 16 15 19 25 26 22 16 14 11 10 12 11 13 14 13 11 18 20 21 23 23 19 18 16 13 18 27 17 12 13 12 12 13 12 10 13 12 13 14 13 10 11 12 11 11 9
15 15 17 16 16 16 16 18 17 13 16 13 17 16 16 13 14 14 14 14 17 17 18 18 17 16 16 15 12 12 10 10 11 12 11 14 13 15 24 30 29 28 29 30 29 30 31 29 18 14 13 20 20 13 13 19 22 24 25 25 24 23 23 24 27 19 15 13 13 13 13 13 13 12 12 14 12 13 12 12 10 10 10 11 10
Wind_Direction
290 295 308 311 259 241 234 223 222 218 216 202 205 207 202 201 194 207 198 187 180 175 179 176 179 179 189 200 205 190 193 187 193 198 196 198 190 191 182 185 180 179 180 175 174 164 165 155 154 163 163 168 172 183 174 167 169 170 146 157 152 144 141 155 172 147 126 86 71 72 72 50 76 80 90 79 73 90 111 116 120 106 90 79 66
303 332 8 344 312 276 254 234 214 214 220 204 208 206 204 199 200 207 186 189 191 189 186 189 193 189 184 193 192 184 180 187 198 191 197 196 195 193 189 181 180 183 174 175 172 168 159 165 168 166 167 173 173 155 155 162 161 164 162 148 293 168 147 176 183 167 150 153 147 129 76 90 75 315 74 26 3 81 119 100 89 98 94 86 80
339 28 12 345 314 292 262 241 237 227 226 208 216 207 204 202 210 200 193 192 198 195 189 199 196 200 199 202 196 189 204 210 212 198 187 195 192 190 184 188 184 178 176 177 169 174 173 164 171 165 171 161 164 170 168 173 177 175 183 173 152 92 102 159 204 261 127 105 106 120 152 149 176 242 237 255 273 202 165 129 96 93 96 92 90
327 13 344 308 281 274 268 257 247 250 255 245 220 214 210 213 210 198 198 197 195 198 201 203 196 196 201 86 180 192 190 178 193 179 191 179 196 189 194 185 180 181 169 175 181 179 172 175 166 169 170 176 171 166 174 178 174 182 189 196 164 143 184 183 217 207 210 154 161 270 132 184 157 218 203 153 349 273 238 174 120 121 121 119 104
316 329 328 292 297 290 279 288 322 276 256 246 225 216 212 214 208 202 199 198 199 196 196 185 165 155 149 85 109 119 99 163 182 207 190 189 189 195 194 177 181 177 177 184 181 180 180 175 171 170 169 172 173 176 177 185 182 184 182 177 192 174 162 169 187 177 235 310 145 132 110 225 232 82 149 199 116 194 222 210 168 157 162 140 107
289 279 270 280 296 316 324 317 299 267 261 249 237 231 226 223 211 205 204 199 199 195 188 178 184 175 163 167 176 185 192 184 195 200 172 185 198 157 167 190 178 184 181 184 187 180 180 176 172 168 171 172 179 181 176 168 183 186 195 192 194 224 165 150 157 192 289 222 281 345 327 196 155 178 164 197 127 265 266 224 222 207 238 192 172
324 284 294 313 323 328 308 319 311 286 269 266 250 236 230 225 205 204 202 200 196 190 182 183 185 189 193 198 200 197 205 219 226 211 194 202 156 184 187 172 187 183 182 183 185 182 177 178 176 175 170 172 172 172 180 188 186 193 178 196 203 173 156 168 174 168 136 219 243 350 89 0 101 139 197 89 185 162 225 220 227 216 232 233 225
243 255 271 315 327 287 293 311 309 295 295 292 254 242 229 223 204 202 202 197 187 185 186 191 191 193 196 203 206 209 213 219 191 204 189 180 192 187 180 191 187 190 183 184 184 181 180 180 177 171 174 177 172 185 185 184 181 184 191 198 182 191 193 181 170 171 174 166 151 133 75 72 43 31 72 165 142 167 190 220 269 242 250 233 237
261 298 342 299 265 266 312 318 311 306 311 309 287 248 237 226 211 201 202 194 189 184 187 195 201 199 199 202 210 219 220 219 154 167 181 174 191 185 189 185 187 196 190 186 188 185 185 179 176 179 177 177 181 185 187 178 185 180 182 186 195 195 205 195 158 183 188 165 148 123 104 81 60 40 73 57 152 168 166 182 201 156 240 233 217
298 268 305 281 276 333 322 293 308 307 309 312 300 276 235 205 205 202 209 197 186 188 193 199 201 197 205 210 215 216 206 187 155 172 177 168 190 190 184 180 188 187 193 191 187 190 184 181 184 185 185 180 183 188 181 183 187 192 192 191 189 195 195 196 189 183 191 166 175 147 150 137 98 117 107 128 43 5 170 187 196 185 208 157 126
281 329 313 307 353 333 321 338 327 327 328 333 335 313 246 191 198 209 218 201 193 194 192 201 202 205 213 212 215 218 208 192 178 185 167 168 189 185 182 184 178 193 186 192 195 190 191 188 186 191 187 188 188 185 191 186 186 187 186 190 196 195 190 191 197 186 182 172 175 173 169 172 170 175 179 185 168 156 137 209 191 205 201 213 110
293 5 3 357 16 0 359 359 351 335 339 343 341 343 309 233 193 213 220 208 198 198 199 206 204 213 218 214 214 214 205 200 205 199 188 188 190 186 175 171 185 185 185 190 197 191 190 191 192 190 193 190 196 193 185 189 182 182 186 191 195 200 194 191 190 175 184 181 189 191 185 182 175 173 176 165 171 182 169 155 173 149 211 223 155
359 359 4 10 10 350 354 348 350 350 342 336 336 330 326 298 221 213 232 213 208 198 205 208 209 216 216 217 219 213 210 208 210 210 194 197 188 183 176 190 173 183 196 195 195 189 187 183 188 192 191 196 192 186 195 184 181 185 187 191 195 195 193 187 189 190 180 180 188 198 186 187 187 173 153 168 170 122 152 126 184 188 188 143 139
357 9 3 358 357 354 1 358 345 334 333 332 330 335 323 320 289 236 253 220 219 212 212 211 217 219 218 220 220 212 217 212 212 211 202 201 192 196 190 189 189 199 190 202 188 184 190 199 193 190 194 190 193 193 186 184 181 185 185 191 197 198 189 199 200 189 194 203 180 171 191 190 181 170 166 152 158 149 169 167 142 158 331 237 104
2 14 8 357 358 1 350 335 336 350 357 355 348 344 335 314 316 282 281 252 217 220 219 224 226 222 221 223 223 220 221 218 218 212 205 200 199 201 198 197 203 203 205 205 193 195 198 191 195 195 196 195 190 186 192 181 183 182 189 195 195 194 196 193 204 184 188 189 186 192 180 185 176 176 169 178 167 177 161 161 150 148 209 232 224
10 12 9 8 6 355 347 4 12 9 6 4 1 348 341 333 316 297 279 282 248 235 229 229 234 231 228 225 224 222 224 227 226 215 210 195 198 201 204 206 208 199 206 200 206 198 199 200 200 203 198 194 192 192 184 183 180 183 185 187 196 174 191 193 201 191 198 194 188 179 177 193 174 180 186 169 181 174 161 160 169 162 160 197 186
17 20 26 30 29 21 20 22 20 13 7 3 356 354 349 340 336 322 310 291 275 256 252 245 243 234 236 233 231 226 223 221 222 220 213 202 200 203 208 211 209 205 204 200 198 203 206 208 207 205 201 200 196 194 190 186 180 188 187 185 193 179 185 194 189 196 197 185 188 184 188 176 182 176 172 174 171 164 172 173 183 180 179 183 181
26 26 21 20 29 23 19 20 19 12 6 358 351 348 4 20 8 335 325 327 320 297 266 256 248 240 238 240 238 233 232 231 229 228 216 208 205 206 208 207 207 204 200 197 196 196 203 210 214 213 211 205 204 196 194 189 183 193 192 193 189 169 187 187 194 191 191 183 184 181 187 184 173 179 180 168 171 171 164 174 178 173 177 182 175
21 18 15 15 20 26 20 17 9 8 356 352 349 360 15 20 10 7 359 348 333 321 288 267 251 247 247 237 238 244 241 242 239 235 220 215 212 211 210 212 200 197 198 196 194 196 196 197 201 207 206 209 205 203 195 195 191 195 192 194 181 180 186 189 184 183 185 177 183 186 185 183 170 177 165 169 174 168 170 164 159 149 182 178 156
16 16 16 16 21 21 17 10 6 1 357 333 316 7 28 20 17 14 12 12 5 354 334 299 277 260 258 255 244 233 240 240 237 231 228 224 220 216 214 211 211 198 202 191 195 200 197 194 194 201 202 201 203 203 197 198 193 203 191 191 185 178 187 189 181 182 175 186 183 188 186 178 169 169 172 175 173 172 160 165 162 161 159 173 153
12 13 18 24 26 29 26 14 348 261 243 358 16 19 17 16 16 14 11 7 5 357 348 327 303 287 269 261 254 240 238 235 235 228 232 231 226 219 217 217 203 210 194 196 197 195 195 198 197 201 198 196 197 197 197 199 202 202 198 196 179 187 188 190 173 181 182 184 190 188 184 180 164 173 173 166 168 167 164 165 163 165 171 175 172
7 8 10 13 16 16 17 20 17 16 18 17 14 16 17 16 10 5 5 8 3 357 353 341 326 304 286 272 265 255 244 237 238 236 235 234 228 221 218 210 213 209 194 203 198 197 195 194 198 202 197 195 197 200 196 199 205 203 202 192 191 187 192 187 179 182 183 185 183 183 183 178 176 176 165 172 168 166 172 168 177 180 179 178 188
10 11 12 14 15 13 13 17 17 16 14 14 15 14 10 8 7 6 4 359 358 357 355 350 343 327 309 294 284 271 257 246 240 241 240 238 235 230 216 217 218 211 204 203 199 195 194 195 197 197 195 196 194 195 197 199 205 204 204 202 196 189 189 185 186 189 180 175 179 189 185 169 165 174 176 173 167 174 174 176 177 179 179 178 178
14 14 14 17 14 13 20 17 14 13 9 8 6 8 7 6 5 2 4 359 356 354 352 356 356 347 330 314 303 289 278 262 252 246 246 242 238 235 221 223 222 212 210 207 201 200 195 194 197 197 195 197 197 198 196 197 203 202 207 207 202 199 198 196 191 182 180 181 186 179 184 174 172 174 173 172 178 176 177 178 173 178 180 175 179
17 15 10 6 13 17 17 15 14 10 6 3 4 1 3 1 2 2 0 355 356 353 353 352 354 355 353 345 322 305 292 278 266 262 255 250 244 239 227 224 219 218 214 206 208 203 203 199 200 198 198 200 200 196 195 195 195 200 206 208 207 204 203 203 197 191 184 184 182 188 175 168 172 175 171 177 176 176 175 173 177 177 178 173 168
3 8 13 16 11 13 13 8 7 7 5 0 358 358 358 358 357 357 355 355 357 356 354 357 356 355 354 354 349 334 312 291 280 274 266 260 254 245 238 229 219 223 217 212 209 205 207 207 206 205 204 203 198 197 202 200 197 195 199 204 207 208 207 206 203 200 193 190 187 185 173 174 175 179 180 175 172 177 173 175 176 177 174 168 175
353 350 348 354 3 3 360 2 3 360 360 356 351 353 355 354 353 355 354 354 353 355 354 356 355 355 353 351 347 346 336 322 304 286 277 268 257 249 241 237 224 223 221 215 212 212 213 214 213 209 208 201 199 200 201 200 198 196 197 198 200 204 212 214 212 205 200 196 194 186 180 179 182 183 173 176 174 173 175 178 179 174 172 171 176
334 349 353 352 341 343 349 349 349 352 350 353 357 354 356 356 352 349 348 351 353 352 352 353 352 351 352 349 344 337 338 333 325 313 298 279 267 257 247 241 231 227 224 221 215 214 216 213 217 213 212 206 204 205 203 201 197 195 201 205 202 202 204 215 219 213 208 204 198 192 190 186 184 184 179 176 170 173 169 176 179 170 170 169 174
343 338 330 295 321 317 328 336 338 336 346 348 349 352 352 353 355 350 349 350 346 349 348 352 350 350 348 342 340 338 336 336 332 330 321 308 291 270 261 250 238 234 228 226 222 216 217 217 217 215 213 209 211 210 206 201 199 201 203 204 201 199 197 203 207 216 215 211 207 205 197 188 189 189 182 175 179 168 161 168 173 167 167 171 171
320 323 332 335 329 329 316 319 330 338 342 347 350 349 351 348 346 347 346 345 351 345 345 344 348 345 341 339 338 338 339 338 341 339 336 328 317 303 282 262 248 238 234 228 224 221 219 219 216 216 214 213 217 215 212 206 199 200 200 203 204 206 203 199 200 199 206 209 209 207 209 194 186 183 183 182 183 184 188 178 166 168 171 170 175
286 299 313 319 321 323 325 324 328 337 338 343 343 340 339 339 340 342 338 336 340 334 335 335 334 337 333 336 338 339 338 339 339 336 334 334 328 321 305 289 270 250 239 232 224 226 223 221 219 216 215 217 219 219 212 204 205 200 197 203 204 207 207 205 202 199 199 194 199 205 201 197 192 186 184 181 181 184 182 184 181 178 174 170 173
280 285 287 299 306 310 321 324 327 331 334 337 338 336 337 337 337 335 330 326 328 329 327 323 320 326 331 334 335 334 335 333 336 336 334 330 327 323 316 301 286 273 255 236 232 231 229 224 223 222 222 223 224 220 208 208 206 203 199 201 205 207 207 212 209 202 197 187 191 188 192 190 195 192 181 183 185 184 183 181 180 182 185 187 184
289 283 283 284 294 297 301 311 317 322 325 323 325 323 325 326 330 324 324 323 319 320 319 317 320 325 329 331 330 333 329 329 329 329 328 328 328 324 319 315 302 285 271 255 245 239 236 231 225 227 229 228 230 211 209 210 207 205 202 198 208 207 206 212 208 207 199 191 183 183 181 192 199 194 188 185 175 180 183 179 178 180 186 190 195
261 262 269 272 279 288 293 298 306 310 314 312 310 301 293 303 306 312 319 315 316 313 311 308 311 319 322 325 325 326 324 322 322 323 327 326 327 324 316 308 303 299 284 266 252 243 242 236 232 232 234 234 232 223 212 210 207 206 203 198 209 207 211 213 208 204 201 194 186 183 184 184 182 189 190 183 176 172 172 173 175 179 183 192 195
279 279 275 275 281 290 298 299 300 303 305 312 311 308 305 305 302 304 303 302 304 304 303 299 303 310 317 318 321 318 316 316 316 318 321 322 322 321 320 315 312 303 295 283 268 260 247 241 243 240 242 241 236 219 211 211 208 206 205 200 207 210 212 215 209 205 202 196 187 185 184 182 173 184 185 180 173 174 171 174 177 180 179 183 190
271 270 273 274 275 279 287 290 287 291 294 295 298 304 310 306 308 300 298 298 296 298 296 295 299 303 309 313 314 313 310 312 312 314 315 317 318 316 314 314 312 301 287 281 279 265 258 249 242 240 243 246 242 218 214 213 209 208 204 204 207 210 213 213 205 201 199 195 192 187 183 177 176 182 185 186 184 174 176 176 178 180 172 178 191
265 262 265 267 268 275 278 282 287 287 290 294 294 300 300 304 307 305 304 300 299 295 295 295 296 305 307 307 306 304 304 305 310 313 315 314 315 313 309 307 304 302 303 294 282 270 266 259 250 243 241 246 244 224 218 212 211 208 204 207 208 210 215 214 206 197 197 198 190 190 185 181 180 180 187 188 186 178 177 177 175 176 178 176 185
260 267 268 269 270 272 276 275 282 284 282 289 291 288 296 296 299 302 305 302 302 297 297 297 297 304 308 307 304 298 297 299 301 304 304 305 303 298 293 300 296 295 291 284 286 287 275 263 254 248 239 244 243 227 222 217 212 208 202 205 206 209 213 213 212 198 195 195 191 193 188 183 181 181 187 189 188 180 178 177 173 172 176 179 182
248 250 258 262 267 274 283 287 282 284 286 286 284 286 289 288 293 299 300 298 295 298 298 298 301 303 304 303 299 296 297 300 300 297 298 297 296 295 294 290 278 272 274 279 273 269 270 263 256 250 247 244 247 235 224 223 216 211 207 206 205 207 211 213 207 206 197 182 192 196 193 192 183 182 187 190 187 182 180 177 176 171 176 184 185
256 256 249 266 287 302 296 288 288 287 294 295 293 289 279 279 282 282 285 284 286 290 292 294 295 298 299 300 298 297 297 298 299 298 298 294 293 294 287 285 276 264 265 263 266 264 264 261 250 248 246 241 244 237 224 224 221 216 211 206 205 204 212 208 202 199 197 201 192 191 198 197 190 187 190 191 190 184 178 177 173 179 179 189 172
281 282 303 301 291 288 285 287 288 293 297 297 295 293 287 284 285 285 278 276 282 287 291 292 291 294 296 296 297 297 299 299 295 292 292 293 292 289 290 286 283 277 266 259 249 249 249 257 250 245 246 242 236 233 223 221 223 221 216 211 206 209 208 200 202 200 199 191 185 189 180 195 192 188 190 193 192 189 178 177 182 182 186 174 156
291 292 305 306 301 291 287 286 284 287 289 290 289 285 283 284 284 278 277 289 290 288 289 289 290 291 292 293 294 294 295 294 293 291 293 291 291 287 281 280 277 276 273 269 262 250 248 251 249 233 237 242 234 228 221 220 222 223 220 218 212 210 199 195 199 204 199 191 186 181 168 188 191 187 189 193 193 192 184 177 186 176 161 164 166
314 311 305 308 302 295 290 286 287 285 284 284 287 283 283 285 281 277 287 295 287 291 288 289 291 291 291 290 290 293 293 292 292 294 295 292 291 289 281 271 268 269 268 270 268 262 254 254 249 227 221 233 232 233 224 218 221 223 223 223 213 200 199 196 200 205 203 196 169 171 176 185 188 187 189 192 192 192 182 177 178 174 173 170 160
289 280 287 299 290 285 286 287 286 286 287 284 283 281 281 281 278 284 296 295 294 291 290 290 288 287 290 289 288 287 286 288 292 296 296 291 287 283 277 270 262 258 263 262 264 263 261 262 260 259 238 219 221 217 229 225 222 224 228 227 223 203 197 199 201 210 204 185 173 160 175 185 187 188 189 191 191 189 176 177 177 177 176 173 155
297 296 300 300 287 289 291 290 289 288 286 284 278 276 278 276 279 295 297 300 297 292 290 287 287 288 287 286 288 286 285 287 286 288 288 287 285 284 280 272 253 254 251 253 256 251 250 255 258 256 261 248 228 226 225 232 228 225 228 230 231 219 203 195 198 207 194 181 179 178 182 186 189 189 190 190 192 188 173 170 177 180 178 159 151
296 299 305 305 300 294 291 289 291 290 289 289 285 277 277 278 291 297 299 297 294 292 288 285 284 283 284 287 288 287 284 283 283 280 277 278 280 279 275 274 264 251 251 248 255 249 246 246 247 249 245 240 227 205 221 224 230 229 228 230 233 229 214 206 193 190 185 178 179 181 182 186 191 190 188 191 190 193 178 172 175 180 166 150 156
301 303 315 311 307 301 296 295 295 294 297 297 291 285 280 289 295 302 304 300 293 291 289 288 287 286 285 284 283 284 286 285 283 283 277 273 272 269 265 266 263 259 254 249 251 250 247 244 242 243 239 230 214 205 208 213 218 225 223 225 227 238 218 208 196 177 175 177 181 180 182 185 185 188 188 185 183 183 186 176 175 161 137 157 161
302 305 311 303 299 296 295 297 294 295 302 301 297 295 297 301 304 307 313 314 304 297 294 291 288 288 285 282 280 277 278 280 279 277 279 278 273 267 263 259 258 256 254 254 248 245 243 241 245 243 240 232 221 209 203 204 211 213 220 217 222 227 207 193 180 171 170 172 175 184 184 187 186 188 186 176 172 167 157 127 129 137 143 146 157
309 311 312 304 304 302 300 299 296 302 307 306 304 304 310 316 319 324 320 314 304 299 295 290 287 285 281 279 277 275 274 273 273 272 265 263 266 270 268 267 256 251 250 254 256 253 246 243 240 241 237 236 235 224 217 204 207 205 206 211 210 210 192 186 176 168 160 166 170 177 182 183 188 184 162 159 155 148 140 144 135 139 146 149 154
303 307 306 307 305 306 308 306 303 308 308 305 306 307 312 318 320 316 313 304 299 295 290 285 283 281 280 280 279 276 272 270 271 271 273 270 261 265 267 267 271 262 254 248 245 249 249 248 246 240 227 230 233 233 215 205 209 210 215 214 213 205 195 178 173 176 164 167 178 180 184 184 183 174 178 172 167 162 147 150 160 148 146 152 152
313 315 312 313 312 311 307 302 303 308 303 302 300 302 305 308 306 300 296 286 287 287 285 283 283 280 282 283 282 280 276 274 273 275 274 276 281 270 265 268 267 270 269 265 258 254 253 250 243 250 240 232 240 238 202 203 209 214 214 215 215 213 201 179 175 172 173 178 179 183 186 184 183 181 183 180 172 170 165 158 156 157 159 156 152